Change the Weather History Date:

Saturday, December 1, 2012

  Actual Average Record
Temperature  
Mean Temperature 52 °F -  
Max Temperature 53 °F 50 °F 71 °F (2002)
Min Temperature 50 °F 41 °F 32 °F (2007)
Degree Days  
Heating Degree Days 14    
Growing Degree Days 2 (Base 50)    
Moisture  
Dew Point 47 °F    
Average Humidity 84    
Maximum Humidity 94    
Minimum Humidity 71    
Precipitation  
Precipitation 0.51 in - - ()
Sea Level Pressure  
Sea Level Pressure 29.60 in    
Wind  
Wind Speed 20 mph (South)    
Max Wind Speed 30 mph    
Max Gust Speed 39 mph    
Visibility 6 miles    
Events Rain    
Averages and records for this station are not official NWS values.
T = Trace of Precipitation, MM = Missing Value Source: NWS Daily Summary

Daily Weather History Graph

Daily Weather History Graph

Search for Another Location

Airport or City:

Trip Planner

Search our weather history database for the weather conditions in past years. The results will help you decide how hot, cold, wet, or windy it might be!

Date:

Astronomy

Dec. 01, 2012 Rise Set
Actual Time 7:33 AM PST 4:37 PM PST
Civil Twilight 7:00 AM PST 5:10 PM PST
Nautical Twilight 6:24 AM PST 5:46 PM PST
Astronomical Twilight 5:49 AM PST 6:21 PM PST
Moon 7:35 PM PST (12/1) 9:48 AM PST (12/1)
Length of Visible Light 10h 09m
Length of Day
9h 03m
Waning Gibbous, 91% of the Moon is Illuminated
Dec 1
Waning Gibbous
Dec 6
Last Quarter
Dec 13
New
Dec 19
First Quarter
Dec 28
Full

Hourly Weather History & Observations

Time (PST) Temp. Dew Point Humidity Pressure Visibility Wind Dir Wind Speed Gust Speed Precip Events Conditions
12:15 AM 50.0 °F 46.4 °F 87% 29.50 in 5.0 mi SSW 21.9 mph 31.1 mph N/A   Mostly Cloudy
12:35 AM 50.0 °F 46.4 °F 87% 29.52 in 7.0 mi SSW 28.8 mph 39.1 mph N/A   Mostly Cloudy
12:55 AM 51.8 °F 46.4 °F 82% 29.54 in 5.0 mi SSW 29.9 mph 39.1 mph N/A   Overcast
1:15 AM 51.8 °F 46.4 °F 82% 29.55 in 7.0 mi SSW 26.5 mph 35.7 mph N/A   Overcast
1:35 AM 51.8 °F 48.2 °F 88% 29.56 in 5.0 mi SSW 24.2 mph 31.1 mph N/A   Overcast
1:55 AM 51.8 °F 46.4 °F 82% 29.56 in 7.0 mi SW 21.9 mph 34.5 mph N/A   Mostly Cloudy
2:15 AM 51.8 °F 46.4 °F 82% 29.58 in 7.0 mi SW 25.3 mph 31.1 mph N/A   Scattered Clouds
2:35 AM 51.8 °F 46.4 °F 82% 29.59 in 7.0 mi SSW 24.2 mph 32.2 mph N/A   Mostly Cloudy
2:55 AM 51.8 °F 44.6 °F 76% 29.61 in 7.0 mi SW 26.5 mph 38.0 mph N/A   Scattered Clouds
3:15 AM 51.8 °F 42.8 °F 71% 29.62 in 7.0 mi SW 23.0 mph 31.1 mph N/A   Scattered Clouds
3:35 AM 50.0 °F 44.6 °F 82% 29.63 in 7.0 mi SW 20.7 mph 25.3 mph N/A   Scattered Clouds
3:55 AM 51.8 °F 44.6 °F 76% 29.64 in 7.0 mi SW 20.7 mph 28.8 mph N/A   Scattered Clouds
4:15 AM 51.8 °F 42.8 °F 71% 29.65 in 7.0 mi SW 18.4 mph 28.8 mph N/A   Scattered Clouds
4:35 AM 51.8 °F 44.6 °F 76% 29.66 in 7.0 mi SW 20.7 mph 28.8 mph N/A   Clear
4:55 AM 51.8 °F 44.6 °F 76% 29.67 in 7.0 mi SSW 17.3 mph 26.5 mph N/A   Clear
5:15 AM 51.8 °F 44.6 °F 76% 29.67 in 7.0 mi SSW 16.1 mph 25.3 mph N/A   Clear
5:35 AM 51.8 °F 46.4 °F 82% 29.68 in 5.0 mi SSW 16.1 mph 25.3 mph N/A   Haze
5:55 AM 51.8 °F 44.6 °F 76% 29.69 in 7.0 mi SSW 15.0 mph 23.0 mph N/A   Clear
6:15 AM 51.8 °F 46.4 °F 82% 29.70 in 7.0 mi SSW 16.1 mph 23.0 mph N/A   Mostly Cloudy
6:35 AM 51.8 °F 46.4 °F 82% 29.71 in 7.0 mi SSW 17.3 mph 24.2 mph N/A   Mostly Cloudy
6:55 AM 51.8 °F 44.6 °F 76% 29.72 in 7.0 mi SSW 20.7 mph 28.8 mph N/A   Mostly Cloudy
7:15 AM 51.8 °F 44.6 °F 76% 29.72 in 7.0 mi SSW 18.4 mph 25.3 mph N/A   Mostly Cloudy
7:35 AM 51.8 °F 44.6 °F 76% 29.73 in 5.0 mi South 13.8 mph 21.9 mph N/A   Haze
7:55 AM 51.8 °F 46.4 °F 82% 29.73 in 7.0 mi South 16.1 mph - N/A   Mostly Cloudy
8:15 AM 51.8 °F 46.4 °F 82% 29.74 in 5.0 mi South 15.0 mph 19.6 mph N/A   Scattered Clouds
8:35 AM 51.8 °F 48.2 °F 88% 29.75 in 4.0 mi South 16.1 mph 24.2 mph N/A   Scattered Clouds
8:55 AM 51.8 °F 46.4 °F 82% 29.75 in 5.0 mi South 18.4 mph 25.3 mph N/A   Mostly Cloudy
9:15 AM 51.8 °F 46.4 °F 82% 29.75 in 5.0 mi South 15.0 mph 26.5 mph N/A   Scattered Clouds
9:35 AM 51.8 °F 46.4 °F 82% 29.75 in 5.0 mi South 18.4 mph 26.5 mph N/A   Haze
10:15 AM 53.6 °F 46.4 °F 77% 29.75 in 7.0 mi South 18.4 mph 27.6 mph N/A   Scattered Clouds
10:35 AM 53.6 °F 46.4 °F 77% 29.75 in 7.0 mi South 16.1 mph 31.1 mph N/A   Clear
10:55 AM 53.6 °F 46.4 °F 77% 29.74 in 7.0 mi South 17.3 mph 24.2 mph N/A   Clear
11:15 AM 51.8 °F 46.4 °F 82% 29.72 in 7.0 mi South 16.1 mph 24.2 mph N/A   Mostly Cloudy
11:35 AM 53.6 °F 46.4 °F 77% 29.71 in 10.0 mi South 13.8 mph 20.7 mph N/A   Overcast
11:55 AM 53.6 °F 46.4 °F 77% 29.72 in 7.0 mi South 18.4 mph 26.5 mph N/A   Overcast
12:15 PM 51.8 °F 46.4 °F 82% 29.72 in 7.0 mi South 21.9 mph 28.8 mph N/A   Overcast
12:35 PM 51.8 °F 46.4 °F 82% 29.71 in 7.0 mi South 17.3 mph 25.3 mph N/A   Mostly Cloudy
12:55 PM 51.8 °F 46.4 °F 82% 29.70 in 7.0 mi South 18.4 mph 25.3 mph N/A   Scattered Clouds
1:15 PM 51.8 °F 46.4 °F 82% 29.70 in 7.0 mi South 18.4 mph 25.3 mph N/A   Mostly Cloudy
1:35 PM 51.8 °F 46.4 °F 82% 29.68 in 7.0 mi South 16.1 mph 24.2 mph N/A   Scattered Clouds
1:55 PM 51.8 °F 46.4 °F 82% 29.68 in 7.0 mi South 15.0 mph 23.0 mph N/A   Mostly Cloudy
2:15 PM 51.8 °F 46.4 °F 82% 29.67 in 7.0 mi South 16.1 mph 21.9 mph N/A   Overcast
2:35 PM 51.8 °F 46.4 °F 82% 29.67 in 2.5 mi South 17.3 mph 33.4 mph 0.03 in Rain Rain
2:55 PM 50.0 °F 48.2 °F 94% 29.65 in 7.0 mi South 17.3 mph 24.2 mph 0.03 in   Overcast
3:15 PM 50.0 °F 46.4 °F 87% 29.65 in 5.0 mi South 11.5 mph - N/A   Overcast
3:35 PM 51.8 °F 48.2 °F 88% 29.64 in 5.0 mi South 12.7 mph 16.1 mph N/A Rain Light Rain
3:55 PM 51.8 °F 48.2 °F 88% 29.62 in 5.0 mi South 15.0 mph 20.7 mph N/A Rain Rain
4:15 PM 51.8 °F 48.2 °F 88% 29.61 in 4.0 mi South 13.8 mph 20.7 mph N/A Rain Light Rain
4:35 PM 51.8 °F 48.2 °F 88% 29.60 in 5.0 mi SSW 21.9 mph 27.6 mph 0.02 in Rain Rain
4:55 PM 50.0 °F 48.2 °F 94% 29.59 in 5.0 mi South 15.0 mph 23.0 mph 0.03 in Rain Light Rain
5:15 PM 50.0 °F 48.2 °F 94% 29.60 in 7.0 mi South 21.9 mph 32.2 mph N/A Rain Light Rain
5:55 PM 51.8 °F 50.0 °F 94% 29.57 in 5.0 mi South 21.9 mph 29.9 mph N/A Rain Rain
6:15 PM 51.8 °F 50.0 °F 94% 29.57 in 5.0 mi South 26.5 mph 35.7 mph N/A   Light Drizzle
6:35 PM 51.8 °F 50.0 °F 94% 29.55 in 5.0 mi SSW 26.5 mph 36.8 mph N/A Rain Rain
6:55 PM 51.8 °F 50.0 °F 94% 29.53 in 7.0 mi South 20.7 mph 33.4 mph N/A   Drizzle
7:15 PM 51.8 °F 48.2 °F 88% 29.51 in 7.0 mi South 17.3 mph 35.7 mph N/A   Light Drizzle
7:35 PM 50.0 °F 48.2 °F 94% 29.51 in 7.0 mi South 18.4 mph 34.5 mph N/A   Drizzle
7:55 PM 50.0 °F 48.2 °F 94% 29.50 in 5.0 mi South 23.0 mph 29.9 mph 0.01 in Rain Rain
8:15 PM 50.0 °F 48.2 °F 94% 29.49 in 7.0 mi South 17.3 mph 28.8 mph 0.01 in Rain Light Rain
8:35 PM 50.0 °F 46.4 °F 87% 29.47 in 10.0 mi South 11.5 mph 20.7 mph 0.02 in Rain Light Rain
8:55 PM 50.0 °F 46.4 °F 87% 29.45 in 7.0 mi SSE 11.5 mph 18.4 mph 0.04 in Rain Light Rain
9:15 PM 50.0 °F 46.4 °F 87% 29.41 in 10.0 mi SE 4.6 mph - 0.02 in Rain Light Rain
9:35 PM 50.0 °F 46.4 °F 87% 29.39 in 5.0 mi SE 11.5 mph 20.7 mph 0.08 in Rain Light Rain
9:55 PM 50.0 °F 46.4 °F 87% 29.37 in 5.0 mi ESE 9.2 mph - 0.13 in Rain Rain
10:15 PM 50.0 °F 46.4 °F 87% 29.37 in 5.0 mi SE 5.8 mph - 0.05 in Rain Rain
10:35 PM 50.0 °F 46.4 °F 87% 29.35 in 7.0 mi SE 8.1 mph - 0.12 in Rain Rain
10:55 PM 50.0 °F 46.4 °F 87% 29.34 in 10.0 mi SSE 8.1 mph - 0.15 in Rain Light Rain
11:15 PM 50.0 °F 46.4 °F 87% 29.33 in 7.0 mi SE 8.1 mph - 0.03 in Rain Rain
11:35 PM 50.0 °F 46.4 °F 87% 29.32 in 7.0 mi SSE 9.2 mph 17.3 mph 0.08 in Rain Rain
11:55 PM 50.0 °F 46.4 °F 87% 29.32 in 7.0 mi South 10.4 mph 17.3 mph 0.12 in Rain Rain